Dewpoint
50 51 50 50 50 51 51 51 49 49 49 48 48 48 44 47 47 48 48 47 47 47 47 49 51 53 52 54 59 64 65 66 66 65 65 65 65 66 66 65 65 64
46 46 46 46 46 48 50 52 52 51 50 50 50 48 48 47 48 48 48 47 47 47 45 46 48 50 52 51 51 56 61 65 66 66 66 67 67 65 64 64 65 66
47 47 46 46 46 47 48 49 51 52 50 50 51 51 50 50 49 49 49 49 48 47 46 46 47 47 48 52 53 52 54 59 63 65 65 66 65 66 66 64 66 66
46 47 48 49 48 47 48 47 47 48 49 50 51 52 51 52 51 49 49 50 50 49 48 46 46 46 47 47 50 51 53 54 57 61 64 65 66 65 64 66 64 64
43 42 42 43 44 45 48 48 48 48 46 45 45 46 47 48 50 50 49 49 49 49 50 49 47 45 44 46 48 49 51 52 54 57 58 62 65 66 66 65 64 63
42 39 39 39 41 42 43 43 43 43 44 46 47 45 45 44 42 42 45 47 45 46 48 48 49 49 47 43 45 48 51 51 52 53 54 57 60 64 64 65 64 64
45 44 44 43 43 41 42 42 43 44 44 45 43 44 44 44 43 40 38 40 41 43 43 45 46 48 50 49 44 42 45 49 51 50 50 51 55 59 64 64 64 64
47 47 45 44 45 44 42 40 41 43 44 43 45 44 44 43 42 43 41 39 38 38 40 40 42 43 45 48 48 46 43 44 49 52 52 50 51 54 57 63 63 64
45 45 45 46 45 45 45 43 42 42 43 45 44 44 44 43 43 45 43 39 37 38 38 39 41 41 44 44 46 46 45 44 43 45 49 50 51 51 54 56 60 63
46 46 46 47 47 47 47 47 46 45 44 44 42 42 42 45 44 42 43 43 41 39 38 38 39 41 43 44 43 44 43 44 44 42 43 47 49 49 50 54 55 59
46 46 46 47 47 46 47 46 47 46 46 43 44 43 43 43 44 44 44 43 43 39 38 38 40 40 40 41 43 44 44 44 43 43 44 42 45 49 52 54 55 58
45 45 45 46 45 46 45 45 44 44 43 44 43 42 42 43 44 45 44 42 42 41 38 37 38 39 39 39 40 42 43 44 44 44 44 45 43 44 47 51 55 56
43 42 43 44 44 44 44 43 42 43 42 42 43 42 42 42 43 42 43 42 41 43 41 39 38 39 40 42 41 42 42 42 44 44 43 45 47 45 45 48 51 54
42 42 42 42 42 42 42 43 43 43 43 43 43 42 42 41 41 42 42 42 42 42 42 42 40 38 39 40 41 43 44 44 44 45 45 45 47 47 48 48 49 53
42 42 42 43 42 42 43 43 43 43 43 43 43 43 43 42 42 42 41 41 40 41 41 41 41 41 41 42 43 42 44 44 44 43 44 44 44 45 47 48 49 49
41 42 41 42 41 41 41 41 40 41 42 41 42 41 41 41 41 40 39 40 40 40 40 42 42 42 44 46 44 43 44 44 44 45 44 45 47 48 49 48 48 50
40 39 39 38 39 39 40 39 38 39 40 40 41 41 41 41 41 40 40 41 39 40 41 42 41 43 44 41 42 43 44 43 42 42 42 42 42 43 44 47 51 53
38 38 38 38 38 37 38 37 39 39 39 39 40 41 41 41 40 40 41 41 41 40 41 42 43 44 41 41 42 41 44 43 42 42 42 42 42 42 42 43 47 50
37 38 37 37 37 37 38 38 38 38 38 39 40 41 41 40 40 41 41 40 40 39 40 42 43 42 40 41 42 41 42 45 42 42 42 42 42 42 42 43 46 48
37 37 37 37 39 38 38 38 38 38 40 41 40 40 41 40 41 41 40 40 40 40 40 41 41 42 40 41 42 41 41 42 44 43 43 42 41 42 42 42 43 46
38 38 38 38 38 38 38 37 38 39 38 40 40 40 41 41 40 41 41 41 40 40 41 41 41 41 40 40 41 41 40 41 45 45 44 43 42 42 42 42 42 45
38 38 38 37 37 37 36 37 38 38 39 40 41 41 42 43 43 42 42 41 42 41 40 41 42 39 39 40 40 40 40 46 45 44 44 42 42 42 42 42 42 44
38 37 38 38 38 37 37 39 39 38 39 41 42 42 42 42 44 42 43 43 42 41 40 40 40 40 39 40 40 40 41 44 44 43 42 42 42 42 41 41 43 43
38 38 38 39 38 37 38 39 39 41 42 46 42 42 43 45 44 42 44 45 42 40 40 41 40 40 39 40 40 40 43 44 42 42 42 41 41 42 42 41 44 50
39 40 39 39 38 38 40 41 42 43 44 47 48 46 45 44 44 43 42 44 44 41 46 42 42 41 40 39 40 40 43 44 41 40 40 40 40 41 42 41 44 47
39 40 40 40 39 41 43 44 47 46 46 46 44 42 42 42 42 42 41 41 42 42 42 43 41 41 42 39 40 40 40 44 42 38 38 38 40 40 39 41 43 43